Regional Weather Roundup
Issued by NWS Cleveland, OH

Home | Current Version | Previous Version | Text Only | Print | Product List | Glossary Off
Versions: 1 2 3 4 5 6 7 8 9 10 11 12 13 14 15 16 17 18 19 20 21 22 23 24 25 26 27 28 29 30 31 32 33 34 35 36 37 38 39 40 41 42 43 44 45 46 47 48 49 50

000
ASUS41 KCLE 170300
RWRCLE
OHIO REGIONAL WEATHER ROUNDUP
NATIONAL WEATHER SERVICE WILMINGTON, OH
1100 PM EDT WED APR 16 2014

NOTE: "FAIR" INDICATES FEW OR NO CLOUDS BELOW 12,000 FEET WITH NO
SIGNIFICANT WEATHER AND/OR OBSTRUCTIONS TO VISIBILITY.

OHZ001>008-015>018-024>027-034-035-043-044-170400-
   NORTHWEST OHIO

CITY           SKY/WX    TMP DP  RH WIND       PRES   REMARKS
DEFIANCE       CLEAR     36  27  69 E12       30.33R
FINDLAY        PTCLDY    38  28  67 NE9       30.32S
TOLEDO EXPRESS CLEAR     34  27  75 E12       30.34F WCI  25
TOLEDO METCALF CLEAR     35  28  75 E9        30.37F WCI  28
LIMA           PTCLDY    38  28  67 E8        30.30S
$$

OHZ009>014-019>023-028>033-038-089-170400-
   NORTHEAST OHIO

CITY           SKY/WX    TMP DP  RH WIND       PRES   REMARKS
CLE-HOPKINS    MOCLDY    41  19  41 E7        30.42R
CLE-LAKEFRONT  PTCLDY    38  23  55 NE7       30.40R
CUY CO. ARPT   PTCLDY    32  27  80 E9        30.41S WCI  24
LORAIN-ELYRIA  PTCLDY    38  25  59 E8        30.39R
ASHTABULA      PTCLDY    31  21  66 E3        30.43F
AKRON-CANTON   PTCLDY    37  16  41 E7        30.38S
WOOSTER        NOT AVBL
MANSFIELD      PTCLDY    36  22  56 E8        30.34S
YOUNGSTOWN     MOCLDY    35  17  47 E5        30.40F
$$

OHZ042-051>053-060>062-070>072-077>081-170400-
  SOUTHWEST OHIO

CITY           SKY/WX    TMP DP  RH WIND       PRES   REMARKS
CINC-COVINGTON PTCLDY    43  23  45 E7        30.26R
CINC-LUNKEN    PTCLDY    37  29  72 NE5       30.29R
HAMILTON       PTCLDY    42  25  50 E7        30.29R
DAYTON         NOT AVBL
WRIGHT-PAT AFB PTCLDY    42  24  48 E7        30.30R
DAYTON GENERAL PTCLDY    42  25  50 E7        30.27R
WILMINGTON     PTCLDY    39  24  55 E7        30.28S
$$

OHZ036-037-039>041-045>050-054>059-063>069-073>076-082>088-170400-
  CENTRAL AND SOUTHEAST OHIO

CITY           SKY/WX    TMP DP  RH WIND       PRES   REMARKS
COLUMBUS       MOCLDY    42  22  44 E10       30.32S
OSU AIRPORT    PTCLDY    40  22  48 E9        30.31S
BOLTON FIELD   NOT AVBL
RICKENBACK AFB NOT AVBL
NEWARK         PTCLDY    40  19  43 E8        30.33S
MARION         PTCLDY    36  23  59 E9        30.33S
LANCASTER      CLEAR     39  23  52 E8        30.32S
ZANESVILLE     PTCLDY    39  17  41 E9        30.34F
NEW PHILLY     MOCLDY    38  18  44 E3        30.38F
$$



USA.gov is the U.S. government's official web portal to all federal, state and local government web resources and services.